Location: East Horndon
(51.5667°N, 0.3500°E)
Time: 10:12:48
(UTC+00:00)

SL-16 R/B - Pass Details

Date: 08 November 2025
Orbit: 841 x 844 km, 71.0° (Epoch: 12 December)

Event Time Altitude Azimuth Distance (km) Brightness Sun altitude
Exits shadow 04:06:05 32° 349° (N) 1,416 3.3 -27.8°
Drops below altitude 10° 04:09:45 10° 21° (NNE) 2,476 4.9 -27.3°
Sets 04:12:23 0° 30° (NNE) 3,415 5.8 -26.9°
